Regional Weather Roundup
Issued by NWS

Home | Current Version | Previous Version | Text Only | Print | Product List | Glossary Off
Versions: 1 2 3 4 5 6 7 8 9 10 11 12 13 14 15 16 17 18 19 20 21 22 23 24 25 26 27 28 29 30 31 32 33 34 35 36 37 38 39 40 41 42 43 44 45 46 47 48 49 50

000
ASUS43 KFSD 301710
RWRSD

WEATHER ROUNDUP FOR SOUTH DAKOTA
NATIONAL WEATHER SERVICE SIOUX FALLS SD
1200 PM CDT TUE SEP 30 2014

NOTE: "FAIR" INDICATES FEW OR NO CLOUDS BELOW 12,000 FEET WITH NO
SIGNIFICANT WEATHER AND/OR OBSTRUCTIONS TO VISIBILITY.


SDZ001>005-009-010-012>017-301800-
NORTHWEST AND NORTH CENTRAL SOUTH DAKOTA

CITY           SKY/WX    TMP DP  RH WIND       PRES   REMARKS
BUFFALO          N/A     53  52  96 NE13      29.47F
FAITH            N/A     55  51  86 SE20G29   29.44S
MOBRIDGE       CLOUDY    58  54  86 E28G37    29.52F
$$

SDZ012>016-024>037-041>051-057-063-072>074-301800-
SOUTHWEST AND SOUTH CENTRAL SOUTH DAKOTA

CITY           SKY/WX    TMP DP  RH WIND       PRES   REMARKS
RAPID CTY ARPT LGT RAIN  54  51  90 W10       29.46R
PIERRE         CLOUDY    67  48  50 S32G41    29.47F
CUSTER         LGT RAIN  48  45  89 W14G25    29.58R
ELLSWORTH AFB  HVY RAIN  55  54  94 NW14      29.46  FOG
PHILIP         LGT RAIN  56  53  90 SW22G28   29.36R
PINE RIDGE     CLOUDY    56  50  80 W23G32    29.56R
WINNER         PTSUNNY   70  47  43 S24G36    29.58F
$$

SDZ004>011-016>023-039-040-301800-
NORTHEAST SOUTH DAKOTA

CITY           SKY/WX    TMP DP  RH WIND       PRES   REMARKS
ABERDEEN       LGT RAIN  56  53  90 E16G24    29.68F
WATERTOWN      LGT RAIN  50  48  93 E14G23    29.77F FOG
SISSETON         N/A     48  45  89 S16G28    29.83F
$$

SDZ017-020-022-023-036>040-048>070-301800-
SOUTHEAST SOUTH DAKOTA

CITY           SKY/WX    TMP DP  RH WIND       PRES   REMARKS
SIOUX FALLS    LGT RAIN  58  56  93 SE18      29.79F
HURON          CLOUDY    61  58  90 SE22G31   29.67F
CHAMBERLAIN    SUNNY     69  50  50 S24G35    29.60F
MITCHELL       CLOUDY    64  60  87 SE16G28   29.70F
YANKTON        CLOUDY    64  61  88 SE18      29.76F
$$

ABBREVIATIONS USED IN REMARKS
   TC - TEMPERATURE IN CELSIUS
  WCI - WIND CHILL INDEX
   HX - HEAT INDEX
  VSB - VISIBILITY




USA.gov is the U.S. government's official web portal to all federal, state and local government web resources and services.